Regional Weather Roundup
Issued by NWS

Home | Current Version | Previous Version | Graphics & Text | Print | Product List | Glossary On
Versions: 1 2 3 4 5 6 7 8 9 10 11 12 13 14 15 16 17 18 19 20 21 22 23 24 25 26 27 28 29 30 31 32 33 34 35 36 37 38 39 40 41 42 43 44 45 46 47
000
ASUS43 KDMX 230107
RWRIA

WEATHER ROUNDUP FOR IOWA
NATIONAL WEATHER SERVICE DES MOINES IA
800 PM CDT MON SEP 22 2014

NOTE: "FAIR" INDICATES FEW OR NO CLOUDS BELOW 12,000 FEET WITH NO
SIGNIFICANT WEATHER AND/OR OBSTRUCTIONS TO VISIBILITY.

* - THESE STATIONS ARE NOT NWS STATIONS...THUS NOT UNDER NWS
QUALITY CONTROL.  THEY ALSO DO NOT REPORT WEATHER SUCH
AS PRECIPITATION OR FOG.

IAZ001>003-012>014-020>022-031>034-043>046-230200-
   NORTHWEST IOWA

CITY           SKY/WX    TMP DP  RH WIND       PRES   REMARKS
CARROLL *      CLEAR     57  52  82 CALM      30.20S
CHEROKEE *     MOCLDY    59  54  82 S3        30.18S
DENISON *      CLEAR     59  55  88 SE5       30.17S
LE MARS *        N/A     64  52  63 SE8       30.16S
ORANGE CITY *  CLEAR     64  48  55 SE5       30.17S
SHELDON *      CLEAR     59  50  72 S7        30.16S
SIOUX CITY     MOCLDY    65  50  58 SE5       30.16F
SPENCER        PTCLDY    59  50  72 S6        30.18S
STORM LAKE *   CLEAR     61  54  77 S7        30.19S
$$

IAZ055>058-069>071-079>083-090>094-230200-
   SOUTHWEST IOWA

CITY           SKY/WX    TMP DP  RH WIND       PRES   REMARKS
ATLANTIC *     CLEAR     61  54  77 CALM      30.20R
AUDUBON *      CLEAR     55  48  76 CALM      30.22R
CLARINDA *     CLEAR     59  54  82 CALM      30.22S
COUNCIL BLFS * CLEAR     63  52  67 SE6       30.18S
CRESTON *      CLEAR     63  52  67 S8        30.23R
HARLAN  *      CLEAR     59  54  82 CALM      30.22F
LAMONI         PTCLDY    63  53  70 S5        30.23R
RED OAK *      MOCLDY    63  52  67 CALM      30.20S HAZE
SHENANDOAH *   CLEAR     61  54  77 SE3       30.20S
$$

IAZ047>049-059>061-072>074-084-230200-
   CENTRAL IOWA

CITY           SKY/WX    TMP DP  RH WIND       PRES   REMARKS
AMES           CLEAR     57  50  77 S7        30.21S
ANKENY *       CLEAR     57  55  94 CALM      30.22R
CHARITON *     CLEAR     61  52  72 S5        30.24R
DES MOINES     PTCLDY    66  51  58 S6        30.22R
GRINNELL*      CLEAR     59  50  72 S3        30.23S
KNOXVILLE *    CLEAR     63  52  67 S6        30.22R
MARSHALLTOWN   CLEAR     62  50  64 S6        30.21S
PELLA *        CLEAR     59  52  77 CALM      30.24R
PERRY *          N/A     57  52  82 CALM      30.21R
$$

IAZ004>006-015-016-023>025-035-036-230200-
   NORTH CENTRAL IOWA

CITY           SKY/WX    TMP DP  RH WIND       PRES   REMARKS
ALGONA *       CLEAR     59  50  72 S6        30.20R
CLARION *        N/A     57  48  72 S5        30.20R
ESTHERVILLE    CLEAR     57  49  74 S5        30.18R
FORT DODGE *   CLEAR     55  50  82 CALM      30.21R
MASON CITY       N/A     56  49  77 S6        30.21S
FOREST CITY *  CLEAR     57  52  82 SE3       30.20R
IOWA FALLS *     N/A     59  48  67 S7        30.22R
$$

IAZ007>011-017>019-026>030-037>042-050>054-066-230200-
   NORTHEAST IOWA

CITY           SKY/WX    TMP DP  RH WIND       PRES   REMARKS
CEDAR RAPIDS   CLEAR     56  51  84 S3        30.23R
CHARLES CITY * CLEAR     59  50  72 SW6       30.21S
CLINTON *      CLEAR     55  46  71 S5        30.26R
DECORAH *      CLEAR     59  50  72 CALM      30.20R
DUBUQUE        CLEAR     55  48  77 SW5       30.23R
MONTICELLO *   CLEAR     57  50  77 CALM      30.23R
OELWEIN *      CLEAR     57  50  77 S7        30.22R
WATERLOO       CLEAR     58  50  75 S7        30.21R
$$

IAZ064-065-067-068-078-230200-
   EAST CENTRAL IOWA

CITY           SKY/WX    TMP DP  RH WIND       PRES   REMARKS
DAVENPORT      CLEAR     57  46  66 S3        30.24R
IOWA CITY      CLEAR     60  49  66 CALM      30.25R
MT. PLEASANT * CLEAR     57  48  72 SE3       30.25R
MUSCATINE *    CLEAR     59  50  72 CALM      30.24R
QUAD CITIES    CLEAR     55  48  77 CALM      30.24R
$$

IAZ062-063-075>077-085>089-095>099-230200-
   SOUTHEAST IOWA

CITY           SKY/WX    TMP DP  RH WIND       PRES   REMARKS
BURLINGTON     LGT RAIN  55  50  83 CALM      30.25R
FAIRFIELD *    CLEAR     59  50  72 CALM      30.25R
FORT MADISON * CLEAR     57  52  82 CALM      30.26R
KEOKUK *       CLEAR     57  55  94 CALM      30.24S
OSKALOOSA *      N/A     59  50  72 S6        30.24S
CENTERVILLE *  CLEAR     55  54  94 SE3       30.25S
OTTUMWA        CLEAR     55  50  83 SE3       30.24R
WASHINGTON *   CLEAR     59  50  72 S5        30.24S
$$

ABBREVIATIONS USED IN REMARKS
   TC - TEMPERATURES IN CELSIUS
  WCI - WIND CHILL INDEX
   HX - HEAT INDEX
  VSB - VISIBILITY
$$




USA.gov is the U.S. government's official web portal to all federal, state and local government web resources and services.